Location: Bednik
(45.3500°N, 16.3833°E)
Time: 00:03:18
(UTC+00:00)

Cosmos 1602 - Pass Details

Date: 08 August 2020
Orbit: 513 x 535 km, 82.5° (Epoch: 23 September)

Event Time Altitude Azimuth Distance (km) Brightness Sun altitude
Exits shadow 20:30:32 59° 112° (ESE) 621 3.7 -20.1°
Maximum altitude 20:30:44 60° 96° (E) 615 3.8 -20.1°
Drops below altitude 10° 20:34:38 10° 16° (NNE) 1,797 6.9 -20.5°
Sets 20:36:49 0° 13° (NNE) 2,695 7.9 -20.8°
